Location: Siloam Springs
(36.1881°N, 94.5403°W)
Time: 10:05:11
(UTC-05:00)

RS-15 - Pass Details

Date: 26 May 2024
Orbit: 1896 x 2148 km, 64.8° (Epoch: 19 June)

Event Time Altitude Azimuth Distance (km) Brightness Sun altitude
Rises 02:46:43 0° 317° (NW) 5,318 10.6 -28.6°
Reaches altitude 10° 02:51:01 10° 303° (WNW) 4,298 9.9 -28.3°
Enters shadow 02:58:22 22° 260° (W) 3,414 8.9 -27.6°
